This is the latest recevied weather packets stored in our database for station/object HK6REC-22. If no packets are shown the sender has not sent any weather packets the latest 1 day(s).
| Time | Temp. | Humidity | Pressure | Rain* | Wind** | Luminosity | Snow |
|---|---|---|---|---|---|---|---|
| 1778087133 | 25.56° C | 78% | 1013 hPa | 0 mm | - | - | - |
| 1778081730 | 22.78° C | 79% | 1014 hPa | 0 mm | - | - | - |
| 1778078128 | 23.33° C | 85% | 1015 hPa | 0 mm | - | - | - |
| 1778076327 | 25° C | 87% | 1017 hPa | 0 mm | - | - | - |
| 1778074526 | 18.89° C | 90% | 1016 hPa | 0 mm | - | - | - |
| 1778072725 | 18.33° C | 89% | 1017 hPa | 0 mm | - | - | - |
| 1778065520 | 18.89° C | 92% | 1016 hPa | 0 mm | - | - | - |
| 1778063719 | 18.89° C | 94% | 1015 hPa | 0 mm | - | - | - |
| 1778061918 | 18.89° C | 92% | 1016 hPa | 0 mm | - | - | - |
| 1778051112 | 18.89° C | 92% | 1015 hPa | 0 mm | - | - | - |
| 1778049311 | 18.89° C | 94% | 1014 hPa | 0 mm | - | - | - |
| 1778047510 | 19.44° C | 93% | 1014 hPa | 0 mm | - | - | - |
| 1778045709 | 19.44° C | 92% | 1015 hPa | 0 mm | - | - | - |
| 1778038504 | 20° C | 91% | 1015 hPa | 0 mm | - | - | - |
| 1778036703 | 20.56° C | 87% | 1016 hPa | 0 mm | - | - | - |
| 1778034902 | 21.11° C | 90% | 1015 hPa | 0 mm | - | - | - |
| 1778033101 | 21.67° C | 85% | 1015 hPa | 0 mm | - | - | - |
| 1778031300 | 21.67° C | 89% | 1014 hPa | 0 mm | - | - | - |
| 1778029498 | 22.22° C | 84% | 1014 hPa | 0 mm | - | - | - |
| 1778027697 | 22.22° C | 88% | 1013 hPa | 0 mm | - | - | - |
| 1778015090 | 23.33° C | 80% | 1009 hPa | 0 mm | - | - | - |
| 1778013289 | 28.33° C | 80% | 1009 hPa | 0 mm | - | - | - |
| 1778011488 | 28.89° C | 78% | 1010 hPa | 0 mm | - | - | - |
* Rain latest hour (hover to see other rain measurements)
** Current wind speed in m/s (hover to see current wind gust speed)